Regional Weather Roundup
Issued by NWS Jackson, KY

Home | Current Version | Previous Version | Graphics & Text | Print | Product List | Glossary On
Versions: 1 2 3 4 5 6 7 8 9 10 11 12 13 14 15 16 17 18 19 20 21 22 23 24 25 26 27 28 29 30 31 32 33 34 35 36 37 38 39 40 41 42 43 44 45 46 47 48 49 50
000
ASUS43 KJKL 210605
RWRJKL

EAST KENTUCKY HOURLY WEATHER ROUNDUP
NATIONAL WEATHER SERVICE JACKSON KY
200 AM EDT THU AUG 21 2014

NOTE: "FAIR" INDICATES FEW OR NO CLOUDS BELOW 12,000 FEET WITH
NO SIGNIFICANT WEATHER AND/OR OBSTRUCTIONS TO VISIBILITY.

* THESE REPORTS ARE NOT UNDER NWS QUALITY CONTROL AND MAY NOT
  REPORT WEATHER SUCH AS PRECIPITATION AND FOG.

KYZ079-080-083-085-087-088-110-112-115-119-120-210700
...EASTERN KENTUCKY...

CITY           SKY/WX    TMP DP  RH WIND       PRES   REMARKS
JACKSON          N/A     67  65  93 CALM      30.10S FOG
6HR MIN TEMP:  67; 6HR MAX TEMP:  71; 6HR PCP: TRACE;

LONDON           N/A     69  65  86 S3        30.11S
6HR MIN TEMP:  69; 6HR MAX TEMP:  72;

SOMERSET*        N/A     68  68 100 S3        30.11S
MONTICELLO*      N/A     70  68  93 CALM      30.12R
6HR MIN TEMP:  67; 6HR MAX TEMP:  71;

WILLIAMSBURG*  CLEAR    N/A N/A N/A CALM        N/A
MIDDLESBORO*     N/A     66  65  99 CALM      30.13S
6HR MIN TEMP:  66; 6HR MAX TEMP:  70; 6HR PCP:  0.04;

HARLAN APT*    CLOUDY    64  64 100 MISG      30.14S VSB 1/4
BLACK MTN*       N/A     66  57  72 S6          N/A
PIKEVILLE APT* CLEAR     66  64  94 SW3       30.10S
BIG SANDY*       N/A     67  66  96 SW3       30.08F
6HR MIN TEMP:  67; 6HR MAX TEMP:  77;

MOREHEAD APT*    N/A     70  68  94 SW5       30.08F
$$

KYZ035-036-041-042-044-050-067-078-099-210700
...CENTRAL KENTUCKY...

CITY           SKY/WX    TMP DP  RH WIND       PRES   REMARKS
MT STERLING*     N/A     68  68 100 SW3       30.08S
FLEMING/MASON*   N/A     68  67  96 SW5       30.07S
DANVILLE*        N/A     68  66  94 SW7       30.08S
RICHMOND*        N/A     68  64  88 S7        30.07S
LEXINGTON        N/A     69  66  90 S5        30.06F
6HR MIN TEMP:  69; 6HR MAX TEMP:  72;

FRANKFORT        N/A     69  67  93 SW6       30.05S
6HR MIN TEMP:  69; 6HR MAX TEMP:  73;

$$

KYZ091>093-OHZ055-061-077-WVZ005-015-034-035-042-210700
...SOUTHERN OHIO/WEST VIRGINIA...

CITY           SKY/WX    TMP DP  RH WIND       PRES   REMARKS
COVINGTON        N/A     70  67  90 SW3       30.04S
COLUMBUS         N/A     75  66  73 S5        30.01F
DAYTON           N/A     71  68  90 SW7       30.04S
WILMINGTON       N/A     67  65  93 S3        30.04S
HUNTINGTON       N/A     69  67  93 SW3       30.04S
CHARLESTON       N/A     71  71 100 SW3       30.04S
PINEVILLE*       N/A     68  68 100 MISG      30.15S FOG
BECKLEY          N/A     68  65  90 SW6       30.13R
BLUEFIELD        N/A     68  61  78 SW7       30.15S
$$

VAZ002-007-008-TNZ017-027-036-066-071-210700
...SOUTHWEST VIRGINIA/EAST TENNESSEE...

CITY           SKY/WX    TMP DP  RH WIND       PRES   REMARKS
WISE*            N/A     64  64 100 SW9       30.17F
JONESVILLE*      N/A     66  66 100 CALM      30.16S
ABINGDON*      CLOUDY    68  67  98 W5        30.15S
BRISTOL        CLOUDY    68  66  93 W5        30.14R FOG
KNOXVILLE      MOCLDY    67  67 100 SW3       30.12F
OAK RIDGE        N/A     68  67  96 CALM      30.14F
CROSSVILLE       N/A     68  64  87 CALM      30.17F
NASHVILLE      MOCLDY    72  70  93 S5        30.09F
$$

...KEY TO REMARKS...
VSB - VISIBILITY IN MILES
WCI - WIND CHILL INDEX
HX  - HEAT INDEX

$$



USA.gov is the U.S. government's official web portal to all federal, state and local government web resources and services.